| time (UTC) | temp C | wind direction | speed KPH | gust KPH | rain 1hr cm | rain 24hr cm | rain mn cm | humidity % | barometer mb |
| 20260503050003 | 14 | 166 | 1.6 | 3.2 | 0.03 | 0.51 | 0.15 | 92 | 1010.2 |
| 20260503045617 | 14 | 160 | 1.6 | 3.2 | 0.03 | 0.51 | 0.15 | 92 | 1010.2 |
| 20260503044503 | 14 | 146 | 1.6 | 3.2 | 0.03 | 0.53 | 0.15 | 92 | 1010.1 |
| 20260503043818 | 14 | 147 | 0.0 | 3.2 | 0.03 | 0.56 | 0.15 | 92 | 1010.3 |
| 20260503042703 | 14 | 137 | 0.0 | 3.2 | 0.03 | 0.56 | 0.15 | 92 | 1010.2 |
| 20260503041803 | 14 | 147 | 0.0 | 3.2 | 0.03 | 1.17 | 0.15 | 92 | 1010.3 |
| 20260503040903 | 14 | 156 | 1.6 | 3.2 | 0.00 | 1.19 | 0.15 | 92 | 1010.4 |
| 20260503040003 | 14 | 153 | 1.6 | 3.2 | 0.00 | 1.19 | 0.15 | 92 | 1010.5 |
| 20260503035403 | 14 | 145 | 0.0 | 1.6 | 0.00 | 1.19 | 0.15 | 92 | 1010.7 |
| 20260503034503 | 14 | 141 | 0.0 | 3.2 | 0.00 | 1.19 | 0.15 | 92 | 1010.7 |
| 20260503033603 | 14 | 124 | 0.0 | 3.2 | 0.00 | 1.19 | 0.15 | 92 | 1010.6 |
| 20260503032703 | 14 | 126 | 0.0 | 3.2 | 0.00 | 1.19 | 0.15 | 92 | 1010.7 |
| 20260503032018 | 14 | 117 | 0.0 | 3.2 | 0.00 | 1.19 | 0.15 | 92 | 1010.6 |
| 20260503030903 | 14 | 104 | 1.6 | 8.0 | 0.03 | 1.19 | 0.15 | 91 | 1010.7 |
| 20260503030003 | 14 | 101 | 0.0 | 3.2 | 0.03 | 1.19 | 0.15 | 91 | 1010.6 |
| 20260503025403 | 14 | 106 | 0.0 | 3.2 | 0.03 | 1.19 | 0.15 | 91 | 1010.7 |
| 20260503024503 | 14 | 125 | 0.0 | 3.2 | 0.05 | 1.19 | 0.15 | 91 | 1010.8 |
| 20260503023817 | 14 | 125 | 0.0 | 3.2 | 0.08 | 1.19 | 0.15 | 91 | 1010.9 |
| 20260503022703 | 14 | 115 | 0.0 | 3.2 | 0.13 | 1.19 | 0.15 | 91 | 1011.0 |
| 20260503021803 | 14 | 100 | 3.2 | 8.0 | 0.13 | 1.17 | 0.13 | 91 | 1010.9 |
| 20260503020903 | 14 | 105 | 1.6 | 4.8 | 0.13 | 1.17 | 0.13 | 91 | 1011.1 |
| 20260503020003 | 14 | 115 | 1.6 | 4.8 | 0.13 | 1.17 | 0.13 | 91 | 1011.4 |
| 20260503015618 | 14 | 104 | 1.6 | 8.0 | 0.13 | 1.17 | 0.13 | 91 | 1011.4 |
| 20260503014503 | 14 | 159 | 0.0 | 3.2 | 0.08 | 1.14 | 0.08 | 91 | 1011.7 |
| 20260503013603 | 14 | 167 | 1.6 | 3.2 | 0.05 | 1.09 | 0.05 | 91 | 1011.8 |
| 20260503012918 | 14 | 174 | 1.6 | 3.2 | 0.05 | 1.09 | 0.05 | 91 | 1012.0 |
| 20260503011803 | 14 | 169 | 3.2 | 6.4 | 0.00 | 1.07 | 0.00 | 91 | 1012.1 |
| 20260503010903 | 14 | 171 | 3.2 | 4.8 | 0.00 | 1.07 | 0.00 | 91 | 1012.2 |
| 20260503010003 | 14 | 164 | 3.2 | 4.8 | 0.00 | 1.07 | 0.00 | 91 | 1012.0 |
| 20260503005403 | 14 | 161 | 1.6 | 3.2 | 0.00 | 1.07 | 0.00 | 91 | 1012.0 |
| 20260503004503 | 14 | 156 | 1.6 | 3.2 | 0.00 | 1.07 | 0.00 | 91 | 1011.7 |
| 20260503003603 | 14 | 139 | 0.0 | 3.2 | 0.00 | 1.07 | 0.00 | 91 | 1011.7 |
| 20260503002917 | 14 | 146 | 0.0 | 3.2 | 0.00 | 1.07 | 0.00 | 91 | 1011.6 |
| 20260503001803 | 14 | 162 | 1.6 | 3.2 | 0.00 | 1.07 | 0.00 | 91 | 1011.9 |
| 20260503000903 | 14 | 155 | 1.6 | 3.2 | 0.00 | 1.07 | 0.00 | 91 | 1011.9 |
| 20260503000003 | 14 | 152 | 1.6 | 3.2 | 0.00 | 1.07 | 0.00 | 90 | 1011.9 |
| 20260502235403 | 14 | 155 | 1.6 | 3.2 | 0.00 | 1.07 | 0.00 | 90 | 1011.9 |
| 20260502234503 | 14 | 154 | 1.6 | 3.2 | 0.00 | 1.07 | 0.00 | 90 | 1012.0 |
| 20260502233818 | 14 | 157 | 1.6 | 3.2 | 0.00 | 1.07 | 0.00 | 90 | 1012.0 |
| 20260502232703 | 14 | 161 | 1.6 | 3.2 | 0.00 | 1.07 | 0.00 | 90 | 1012.1 |
| 20260502231803 | 14 | 138 | 1.6 | 3.2 | 0.00 | 1.07 | 0.00 | 90 | 1012.0 |
| 20260502230903 | 15 | 132 | 0.0 | 3.2 | 0.00 | 1.07 | 0.00 | 90 | 1012.1 |
| 20260502230003 | 15 | 142 | 0.0 | 3.2 | 0.00 | 1.07 | 0.00 | 90 | 1012.1 |
| 20260502225403 | 15 | 138 | 0.0 | 3.2 | 0.00 | 1.07 | 0.00 | 90 | 1012.2 |
| 20260502224503 | 15 | 100 | 1.6 | 4.8 | 0.00 | 1.07 | 0.00 | 89 | 1012.3 |
| 20260502223603 | 15 | 82 | 1.6 | 4.8 | 0.00 | 1.07 | 0.00 | 89 | 1012.2 |
| 20260502222703 | 15 | 91 | 1.6 | 4.8 | 0.00 | 1.07 | 0.00 | 89 | 1012.1 |
| 20260502222018 | 14 | 94 | 1.6 | 9.7 | 0.00 | 1.07 | 0.00 | 89 | 1012.2 |
| 20260502220903 | 14 | 92 | 3.2 | 9.7 | 0.00 | 1.07 | 0.00 | 89 | 1012.3 |
| 20260502220004 | 14 | 86 | 4.8 | 11.3 | 0.00 | 1.07 | 0.00 | 88 | 1012.3 |
| 20260502215618 | 14 | 88 | 4.8 | 11.3 | 0.00 | 1.07 | 1.07 | 88 | 1012.4 |
| 20260502214503 | 14 | 90 | 6.4 | 14.5 | 0.00 | 1.07 | 1.07 | 88 | 1012.6 |
| 20260502213603 | 14 | 95 | 8.0 | 17.7 | 0.00 | 1.07 | 1.07 | 87 | 1012.7 |
| 20260502212703 | 14 | 92 | 6.4 | 12.9 | 0.00 | 1.07 | 1.07 | 87 | 1012.6 |
| 20260502211803 | 14 | 86 | 4.8 | 11.3 | 0.03 | 1.07 | 1.07 | 87 | 1012.6 |
| 20260502210903 | 14 | 62 | 4.8 | 11.3 | 0.03 | 1.07 | 1.07 | 87 | 1012.4 |
| 20260502210003 | 14 | 60 | 3.2 | 9.7 | 0.03 | 1.07 | 1.07 | 87 | 1012.4 |
| 20260502205618 | 14 | 61 | 3.2 | 12.9 | 0.05 | 1.07 | 1.07 | 87 | 1012.4 |
| 20260502204717 | 14 | 58 | 6.4 | 12.9 | 0.08 | 1.07 | 1.07 | 87 | 1012.7 |
| 20260502203603 | 14 | 64 | 8.0 | 17.7 | 0.15 | 1.07 | 1.07 | 87 | 1012.9 |
| 20260502202918 | 14 | 60 | 4.8 | 14.5 | 0.20 | 1.07 | 1.07 | 87 | 1013.0 |
| 20260502201803 | 14 | 55 | 6.4 | 14.5 | 0.25 | 1.04 | 1.04 | 87 | 1013.0 |
| 20260502200903 | 15 | 64 | 6.4 | 14.5 | 0.30 | 1.04 | 1.04 | 87 | 1013.2 |
| 20260502200003 | 15 | 65 | 4.8 | 12.9 | 0.33 | 1.04 | 1.04 | 86 | 1013.5 |
| 20260502195618 | 15 | 59 | 3.2 | 12.9 | 0.33 | 1.02 | 1.02 | 87 | 1013.6 |
| 20260502194503 | 15 | 262 | 0.0 | 3.2 | 0.25 | 0.97 | 0.97 | 85 | 1013.4 |
| 20260502193603 | 15 | 262 | 3.2 | 11.3 | 0.23 | 0.91 | 0.91 | 84 | 1013.6 |
| 20260502192703 | 15 | 261 | 3.2 | 11.3 | 0.15 | 0.84 | 0.84 | 82 | 1013.6 |
| 20260502191803 | 16 | 240 | 4.8 | 16.1 | 0.08 | 0.79 | 0.79 | 79 | 1013.9 |
| 20260502191116 | 17 | 207 | 6.4 | 12.9 | 0.05 | 0.74 | 0.74 | 75 | 1014.1 |
| 20260502190003 | 20 | 66 | 1.6 | 6.4 | 0.00 | 0.71 | 0.71 | 69 | 1013.6 |
| 20260502185617 | 20 | 36 | 3.2 | 6.4 | 0.00 | 0.71 | 0.71 | 65 | 1013.3 |
| 20260502184716 | 20 | 14 | 6.4 | 11.3 | 0.00 | 0.71 | 0.71 | 64 | 1013.2 |
| 20260502183603 | 20 | 22 | 8.0 | 12.9 | 0.00 | 0.71 | 0.71 | 64 | 1013.0 |
| 20260502182703 | 20 | 17 | 6.4 | 11.3 | 0.00 | 0.71 | 0.71 | 65 | 1013.1 |
| 20260502181803 | 20 | 22 | 4.8 | 9.7 | 0.00 | 0.71 | 0.71 | 64 | 1013.2 |
| 20260502181118 | 20 | 19 | 4.8 | 9.7 | 0.00 | 0.71 | 0.71 | 65 | 1013.1 |
| 20260502163603 | 21 | 358 | 6.4 | 16.1 | 0.00 | 0.71 | 0.71 | 64 | 1013.7 |
| 20260502162703 | 21 | 358 | 8.0 | 14.5 | 0.00 | 0.71 | 0.71 | 65 | 1013.8 |
| 20260502162018 | 21 | 5 | 6.4 | 12.9 | 0.00 | 0.71 | 0.71 | 64 | 1013.9 |
| 20260502160903 | 21 | 340 | 6.4 | 14.5 | 0.00 | 0.71 | 0.71 | 64 | 1014.1 |
| 20260502152017 | 21 | 3 | 6.4 | 11.3 | 0.00 | 0.71 | 0.71 | 63 | 1014.7 |
| 20260502150903 | 21 | 5 | 6.4 | 11.3 | 0.00 | 0.71 | 0.71 | 63 | 1014.9 |
| 20260502130217 | 21 | 340 | 4.8 | 9.7 | 0.00 | 0.71 | 0.71 | 66 | 1016.7 |
| 20260502123603 | 21 | 285 | 1.6 | 6.4 | 0.00 | 0.71 | 0.71 | 68 | 1016.9 |
| 20260502122703 | 21 | 298 | 3.2 | 9.7 | 0.00 | 0.71 | 0.71 | 68 | 1017.2 |
| 20260502121803 | 20 | 292 | 3.2 | 11.3 | 0.00 | 0.71 | 0.71 | 70 | 1017.3 |
| 20260502120904 | 20 | 284 | 4.8 | 9.7 | 0.00 | 0.71 | 0.71 | 70 | 1017.3 |
| 20260502115403 | 20 | 297 | 3.2 | 8.0 | 0.00 | 0.71 | 0.71 | 72 | 1017.4 |
| 20260502113603 | 20 | 278 | 3.2 | 8.0 | 0.00 | 0.71 | 0.71 | 72 | 1017.7 |
| 20260502112703 | 20 | 333 | 1.6 | 6.4 | 0.00 | 0.71 | 0.71 | 73 | 1017.8 |
| 20260502111803 | 20 | 299 | 1.6 | 4.8 | 0.00 | 0.71 | 0.71 | 76 | 1017.9 |
| 20260502110903 | 20 | 216 | 1.6 | 6.4 | 0.00 | 0.71 | 0.71 | 77 | 1017.9 |
| 20260502110003 | 19 | 266 | 1.6 | 6.4 | 0.00 | 0.71 | 0.71 | 76 | 1017.9 |
| 20260502105403 | 19 | 198 | 1.6 | 4.8 | 0.00 | 0.71 | 0.71 | 80 | 1018.0 |
| 20260502104503 | 19 | 202 | 1.6 | 4.8 | 0.00 | 0.71 | 0.71 | 79 | 1018.1 |
| 20260502103603 | 18 | 197 | 1.6 | 4.8 | 0.00 | 0.71 | 0.71 | 81 | 1018.1 |
| 20260502102703 | 18 | 224 | 0.0 | 3.2 | 0.00 | 0.71 | 0.71 | 80 | 1018.2 |
| 20260502102017 | 18 | 223 | 0.0 | 3.2 | 0.00 | 0.71 | 0.71 | 80 | 1018.2 |
| 20260502100903 | 18 | 203 | 0.0 | 3.2 | 0.00 | 0.71 | 0.71 | 80 | 1018.4 |
| 20260502090903 | 17 | 278 | 1.6 | 6.4 | 0.00 | 0.71 | 0.71 | 85 | 1018.7 |
| 20260502071118 | 15 | 188 | 0.0 | 1.6 | 0.00 | 0.71 | 0.71 | 88 | 1018.6 |
| 20260502070003 | 15 | 182 | 0.0 | 3.2 | 0.00 | 0.71 | 0.71 | 90 | 1018.6 |
| 20260502065403 | 15 | 182 | 0.0 | 3.2 | 0.00 | 0.71 | 0.71 | 89 | 1018.7 |
| 20260502064503 | 15 | 183 | 0.0 | 3.2 | 0.00 | 0.71 | 0.71 | 89 | 1018.6 |
| 20260502063603 | 15 | 179 | 0.0 | 3.2 | 0.00 | 0.71 | 0.71 | 90 | 1018.5 |
| 20260502062917 | 15 | 184 | 1.6 | 3.2 | 0.00 | 0.71 | 0.71 | 91 | 1018.6 |
| 20260502061803 | 14 | 233 | 0.0 | 3.2 | 0.00 | 0.71 | 0.71 | 91 | 1018.6 |
| 20260502060903 | 13 | 287 | 0.0 | 3.2 | 0.00 | 0.71 | 0.71 | 91 | 1018.7 |
| 20260502060217 | 13 | 287 | 0.0 | 3.2 | 0.00 | 0.71 | 0.71 | 90 | 1018.6 |
| 20260502055403 | 13 | 316 | 0.0 | 3.2 | 0.00 | 0.71 | 0.71 | 90 | 1018.5 |
| 20260502054718 | 13 | 329 | 0.0 | 3.2 | 0.03 | 0.71 | 0.71 | 90 | 1018.4 |
| 20260502053603 | 13 | 326 | 0.0 | 3.2 | 0.05 | 0.71 | 0.71 | 90 | 1018.3 |
| 20260502052703 | 13 | 294 | 1.6 | 3.2 | 0.05 | 0.71 | 0.71 | 89 | 1018.2 |
| 20260502051803 | 13 | 283 | 1.6 | 6.4 | 0.64 | 0.71 | 0.71 | 89 | 1018.3 |
| 20260502050903 | 13 | 299 | 1.6 | 3.2 | 0.71 | 0.71 | 0.71 | 88 | 1018.3 |